Location: Unspecified
(0.0000°N, 0.0000°E)
Time: 23:00:11
(UTC+00:00)

Kosmos-2004 - Pass Details

Date: 26 May 2026
Orbit: 969 x 1012 km, 83.0° (Epoch: 6 June)

Event Time Altitude Azimuth Distance (km) Brightness Sun altitude
Exits shadow 04:48:53 18° 277° (W) 2,181 7.3 -15.9°
Drops below altitude 10° 04:52:39 10° 315° (NW) 2,724 8.1 -15.0°
Sets 04:56:01 0° 333° (NNW) 3,677 9.0 -14.2°
